Location: Siloam Springs
(36.1881°N, 94.5403°W)
Time: 05:03:05
(UTC-05:00)

CUBESAT XI-V - Pass Details

Date: 27 May 2024
Orbit: 657 x 679 km, 98.2° (Epoch: 16 June)

Event Time Altitude Azimuth Distance (km) Brightness Sun altitude
Exits shadow 02:37:23 23° 90° (E) 1,409 ? -29.2°
Maximum altitude 02:38:24 25° 69° (ENE) 1,339 ? -29.2°
Drops below altitude 10° 02:42:03 10° 15° (NNE) 2,076 ? -28.9°
Sets 02:44:35 0° 2° (N) 2,991 ? -28.7°
